Vorticity
13 16 15 13 10 8 7 6 6 7 9 8 9 9 6 5 4 3 3 4 3 3 10 13 4 2 2 3 3 -0 4 6 8 7 1 1 -3 -1 8 1 6 9 4
9 6 7 7 5 3 1 1 1 1 3 3 6 5 5 5 6 4 5 4 2 4 4 4 12 10 2 2 3 3 4 -2 2 6 6 2 5 -1 -0 2 7 3 13
7 6 3 3 4 6 11 14 16 15 14 14 10 6 3 6 7 6 5 5 6 5 4 6 6 7 17 3 2 2 2 5 2 6 4 3 3 3 3 1 1 3 2
5 15 22 26 38 43 37 36 27 24 34 44 35 40 38 25 12 9 7 3 5 4 4 3 4 6 7 16 8 3 3 3 4 2 5 5 4 3 5 3 0 1 13
45 27 24 23 8 3 -1 21 1 4 2 7 5 10 23 28 25 24 31 22 19 10 5 7 5 5 3 5 11 11 3 3 6 4 4 4 5 6 3 1 1 4 -1
3 10 11 7 7 22 14 -5 15 16 27 19 14 18 30 16 19 28 34 30 27 22 19 18 13 8 9 6 5 10 13 2 3 4 5 6 6 5 4 6 -1 5 2
7 9 12 13 11 19 18 6 -7 10 16 21 14 -2 26 13 14 12 11 18 25 24 20 17 22 18 14 10 9 7 9 12 3 5 4 6 5 6 6 5 2 2 2
19 15 9 15 16 12 4 21 14 0 2 18 29 3 10 19 12 13 11 7 9 11 20 21 19 18 16 11 11 11 8 11 11 4 4 4 6 6 9 5 4 3 4
25 21 9 4 18 30 25 9 52 0 15 11 26 -13 36 33 22 13 8 8 9 9 15 18 22 19 18 16 8 11 11 10 13 11 7 5 5 7 7 8 6 2 4
15 4 8 17 3 6 13 40 21 1 10 19 9 12 27 18 33 40 45 42 32 26 32 15 20 22 17 14 13 9 10 10 10 13 7 8 2 7 8 6 7 4 4
22 21 15 10 21 10 -6 21 41 13 11 12 14 6 37 25 43 46 47 52 53 30 15 14 40 21 18 15 12 13 14 11 12 12 12 5 9 2 5 9 6 6 4
24 23 19 6 7 11 24 17 29 30 14 25 13 25 22 24 45 39 39 38 33 27 43 17 16 30 15 16 12 12 15 13 13 14 14 16 5 1 4 4 6 7 5
-10 22 21 4 2 10 -10 -7 14 15 21 36 26 35 -18 27 29 44 25 27 22 31 24 21 10 18 17 14 13 12 14 14 15 13 13 13 13 12 9 6 6 6 8
-1 2 15 12 9 15 13 -9 6 -1 22 12 49 49 -7 36 22 14 14 21 15 13 23 15 18 15 11 12 13 14 14 13 15 15 13 13 12 12 11 9 10 4 5
5 4 9 15 15 33 43 29 30 29 31 8 17 41 49 22 28 19 15 14 14 16 17 20 21 12 13 12 15 16 12 11 12 15 17 15 14 8 11 6 13 11 5
13 6 10 20 0 6 -10 10 16 22 29 24 9 7 32 29 21 27 22 22 18 15 14 13 12 12 13 13 10 12 10 8 8 9 9 12 14 13 10 16 6 12 17
17 0 12 13 -5 6 1 5 -5 2 43 39 24 2 17 7 27 27 20 21 21 20 20 18 18 15 14 13 11 12 14 13 14 14 12 13 16 15 9 5 11 13 10
17 6 18 -2 4 4 -4 1 -5 3 -1 -10 21 49 12 9 15 -8 11 9 17 14 4 18 25 23 26 19 32 34 30 30 19 14 14 15 14 15 14 16 16 27 24
19 16 13 16 1 7 3 -1 -3 12 2 -2 -1 -7 32 43 22 25 36 47 33 40 34 41 43 24 20 23 23 7 1 25 36 42 46 35 39 36 45 35 44 66 66
20 18 11 3 9 5 1 1 2 1 1 5 6 1 -2 13 2 44 -10 28 -3 34 33 29 26 40 16 10 37 83 76 56 -8 30 56 56 74 9 17 8 -1 -2 -4
21 11 11 11 3 2 1 4 1 1 2 2 5 5 7 2 4 -0 1 5 9 29 -9 -1 -22 10 30 4 1 -3 -2 0 9 12 -6 -7 -2 -4 4 3 5 2 2
17 14 8 9 4 2 3 3 1 1 1 3 4 4 5 5 6 7 7 8 -5 2 1 5 6 3 -1 -4 -4 -3 0 4 2 -4 0 -0 1 1 1 1 2 1 0
10 16 12 12 6 1 2 0 0 2 3 4 4 5 5 4 3 8 10 7 8 7 5 4 5 7 6 6 6 5 3 3 4 4 4 5 5 5 5 5 4 3 3
6 8 15 7 3 3 2 2 0 3 3 2 5 9 11 8 6 4 6 8 8 7 7 6 6 6 5 4 4 4 5 5 5 5 4 3 3 4 5 7 8 6 4
4 6 9 11 9 6 4 3 4 3 3 3 1 3 7 9 10 9 5 6 8 6 7 6 4 3 4 4 4 4 5 5 5 5 4 4 4 5 6 5 4 4 4
10 7 5 4 7 8 7 7 9 7 4 2 6 2 2 6 7 7 6 5 7 7 2 2 4 5 5 4 4 5 6 6 7 5 4 3 3 4 6 8 7 7 5
Height
5752 5752 5751 5750 5750 5750 5750 5751 5750 5749 5747 5748 5748 5748 5751 5751 5753 5755 5758 5761 5763 5766 5768 5773 5778 5782 5787 5793 5798 5803 5806 5810 5812 5814 5817 5819 5822 5824 5827 5828 5828 5829 5829
5739 5738 5738 5737 5735 5734 5732 5731 5730 5730 5729 5725 5724 5724 5727 5731 5732 5735 5737 5740 5744 5747 5750 5755 5760 5768 5773 5780 5785 5788 5794 5798 5801 5803 5806 5806 5812 5818 5820 5819 5820 5821 5821
5727 5726 5723 5719 5717 5714 5711 5708 5706 5704 5702 5700 5698 5698 5700 5705 5709 5715 5715 5718 5720 5725 5731 5737 5741 5749 5755 5761 5767 5772 5778 5783 5788 5791 5794 5796 5801 5808 5807 5811 5811 5813 5814
5711 5709 5706 5704 5701 5697 5693 5690 5687 5683 5678 5675 5675 5671 5671 5675 5682 5683 5685 5690 5695 5700 5705 5713 5719 5725 5737 5742 5749 5755 5762 5767 5773 5778 5782 5786 5789 5793 5799 5801 5803 5804 5806
5698 5695 5693 5691 5689 5686 5683 5679 5675 5669 5663 5659 5656 5651 5649 5648 5650 5648 5653 5660 5666 5673 5681 5687 5697 5704 5711 5726 5730 5739 5746 5753 5758 5764 5769 5775 5777 5779 5787 5792 5794 5793 5797
5689 5686 5684 5683 5680 5675 5670 5667 5663 5655 5648 5642 5636 5632 5628 5626 5624 5625 5626 5632 5637 5646 5653 5661 5669 5682 5692 5701 5714 5719 5728 5736 5743 5748 5755 5762 5766 5769 5773 5780 5783 5784 5786
5682 5680 5677 5674 5669 5664 5660 5656 5650 5642 5635 5627 5620 5615 5610 5605 5604 5605 5605 5608 5613 5620 5630 5638 5645 5657 5671 5679 5689 5701 5709 5719 5728 5735 5742 5748 5753 5758 5761 5765 5770 5775 5776
5676 5674 5671 5667 5661 5655 5650 5643 5636 5630 5620 5611 5604 5599 5593 5586 5583 5584 5584 5585 5589 5596 5607 5613 5620 5634 5650 5661 5670 5682 5693 5702 5711 5720 5727 5734 5741 5745 5749 5753 5758 5761 5764
5673 5670 5666 5660 5653 5646 5638 5630 5621 5618 5607 5597 5589 5583 5575 5568 5562 5558 5554 5556 5562 5572 5584 5591 5602 5617 5630 5643 5654 5664 5678 5687 5695 5703 5712 5719 5727 5733 5737 5741 5744 5748 5751
5670 5664 5660 5653 5647 5638 5630 5618 5610 5603 5594 5584 5576 5568 5559 5547 5535 5524 5520 5522 5532 5547 5561 5573 5585 5601 5614 5626 5638 5652 5663 5672 5682 5690 5698 5706 5713 5719 5724 5728 5731 5735 5738
5665 5661 5655 5647 5641 5632 5623 5612 5601 5594 5584 5573 5564 5556 5544 5529 5510 5498 5495 5499 5510 5525 5547 5560 5571 5585 5600 5614 5627 5640 5650 5658 5667 5676 5684 5692 5698 5704 5710 5715 5719 5722 5725
5661 5657 5651 5645 5636 5628 5619 5608 5595 5584 5575 5563 5552 5545 5534 5517 5502 5492 5489 5493 5504 5516 5532 5551 5563 5576 5589 5603 5616 5626 5637 5645 5653 5663 5670 5679 5684 5689 5696 5701 5705 5709 5711
5660 5655 5649 5642 5635 5626 5617 5606 5594 5581 5567 5552 5542 5537 5530 5516 5506 5498 5495 5497 5507 5517 5530 5547 5560 5568 5581 5594 5606 5616 5625 5634 5643 5650 5657 5664 5669 5676 5680 5685 5690 5695 5698
5659 5654 5648 5641 5633 5624 5616 5606 5595 5579 5564 5551 5538 5532 5528 5519 5511 5507 5506 5507 5514 5522 5532 5545 5556 5565 5576 5588 5597 5606 5615 5624 5631 5637 5644 5650 5656 5662 5665 5670 5676 5681 5685
5658 5652 5646 5640 5633 5624 5613 5604 5596 5580 5565 5555 5544 5533 5529 5523 5518 5517 5516 5519 5525 5531 5539 5548 5557 5566 5575 5584 5592 5599 5607 5615 5621 5627 5633 5639 5644 5649 5653 5658 5664 5666 5671
5656 5651 5646 5641 5635 5627 5617 5608 5598 5584 5572 5559 5551 5544 5535 5530 5527 5526 5527 5528 5532 5537 5544 5551 5557 5565 5572 5579 5586 5593 5599 5605 5611 5616 5621 5627 5634 5639 5644 5648 5652 5657 5660
5653 5651 5648 5642 5635 5628 5622 5614 5604 5593 5579 5568 5560 5553 5548 5544 5538 5536 5537 5539 5542 5546 5550 5555 5560 5565 5571 5577 5582 5588 5593 5598 5603 5607 5613 5619 5625 5630 5636 5640 5644 5647 5649
5651 5648 5646 5643 5637 5630 5622 5616 5608 5602 5592 5581 5572 5564 5558 5555 5552 5550 5550 5551 5553 5554 5556 5558 5560 5564 5568 5572 5576 5581 5585 5589 5595 5601 5606 5611 5617 5622 5626 5630 5634 5637 5640
5647 5644 5642 5640 5636 5632 5626 5619 5611 5606 5600 5591 5583 5579 5572 5565 5564 5561 5559 5559 5559 5559 5558 5559 5560 5562 5566 5570 5574 5577 5580 5585 5589 5594 5598 5604 5609 5613 5617 5621 5626 5627 5629
5643 5640 5639 5638 5635 5632 5629 5624 5618 5611 5605 5600 5595 5589 5584 5582 5575 5570 5572 5571 5571 5564 5562 5563 5563 5565 5569 5572 5574 5577 5579 5585 5589 5590 5594 5601 5605 5612 5613 5618 5618 5621 5623
5639 5637 5636 5635 5633 5631 5629 5626 5621 5616 5611 5606 5602 5598 5594 5590 5588 5586 5583 5578 5575 5573 5576 5574 5571 5570 5574 5580 5581 5583 5586 5588 5593 5596 5597 5602 5606 5608 5610 5612 5614 5615 5616
5639 5637 5633 5632 5631 5629 5627 5624 5622 5618 5614 5611 5607 5603 5600 5597 5595 5593 5592 5589 5587 5585 5583 5582 5582 5581 5582 5583 5585 5585 5588 5590 5594 5596 5598 5601 5603 5605 5606 5607 5608 5610 5610
5638 5635 5634 5631 5629 5627 5625 5622 5620 5617 5615 5612 5609 5606 5604 5601 5598 5597 5595 5593 5592 5590 5589 5588 5587 5587 5587 5588 5588 5589 5590 5592 5594 5595 5596 5598 5599 5600 5600 5601 5601 5602 5601
5635 5633 5632 5630 5628 5626 5623 5621 5620 5617 5614 5612 5609 5606 5604 5602 5600 5598 5597 5595 5594 5592 5591 5590 5589 5589 5588 5588 5589 5589 5589 5590 5590 5590 5591 5591 5591 5591 5591 5591 5591 5589 5588
5631 5629 5628 5626 5624 5623 5621 5618 5616 5613 5611 5609 5607 5605 5603 5600 5599 5597 5596 5595 5594 5592 5591 5590 5588 5588 5587 5586 5586 5586 5586 5585 5585 5584 5584 5584 5583 5583 5582 5580 5578 5575 5573
5626 5624 5621 5619 5618 5616 5614 5612 5610 5608 5607 5605 5604 5602 5600 5598 5596 5594 5593 5591 5590 5590 5589 5587 5586 5584 5583 5582 5580 5579 5579 5578 5577 5577 5575 5574 5573 5571 5569 5568 5565 5562 5559